Freeport, IL

2:01 PM CST on November 19, 2017 (GMT -0600)
Albertus

Weather History for KFEP - December, 2012

Change the Weather History Date:

Friday, December 21, 2012

  Actual Average Record
Temperature  
Mean Temperature 21 °F -  
Max Temperature 27 °F 28 °F 48 °F (1988)
Min Temperature 14 °F 10 °F -17 °F (1989)
Degree Days  
Heating Degree Days 44    
Moisture  
Dew Point 14 °F    
Average Humidity 77    
Maximum Humidity 86    
Minimum Humidity 70    
Precipitation  
Precipitation 0.00 in - - ()
Sea Level Pressure  
Sea Level Pressure 30.03 in    
Wind  
Wind Speed 19 mph (WNW)    
Max Wind Speed 25 mph    
Max Gust Speed 40 mph    
Visibility 10 miles    
Events      
Averages and records for this station are not official NWS values.
T = Trace of Precipitation, MM = Missing Value Source: NWS Daily Summary

Daily Weather History Graph

Daily Weather History Graph

Search for Another Location

Airport or City:

Trip Planner

Search our weather history database for the weather conditions in past years. The results will help you decide how hot, cold, wet, or windy it might be!

Date:

Astronomy

Dec. 21, 2012 Rise Set
Actual Time 7:24 AM CST 4:29 PM CST
Civil Twilight 6:52 AM CST 5:01 PM CST
Nautical Twilight 6:16 AM CST 5:36 PM CST
Astronomical Twilight 5:42 AM CST 6:10 PM CST
Moon 12:20 PM CST (12/21) 1:06 AM CST (12/21)
Length of Visible Light 10h 09m
Length of Day
9h 05m
Waxing Gibbous, 65% of the Moon is Illuminated
Dec 21
Waxing Gibbous
Dec 28
Full
Jan 4
Last Quarter
Jan 11
New
Jan 18
First Quarter

Hourly Weather History & Observations

Time (CST) Temp. Windchill Dew Point Humidity Pressure Visibility Wind Dir Wind Speed Gust Speed Precip Events Conditions
12:15 AM 27.5 °F 12.6 °F 23.0 °F 83% 29.67 in 4.0 mi WNW 25.3 mph 34.5 mph N/A   Overcast
12:35 AM 27.0 °F 11.9 °F 22.6 °F 84% 29.68 in 5.0 mi WNW 25.3 mph 33.4 mph N/A   Haze
12:55 AM 26.6 °F 11.7 °F 22.1 °F 83% 29.70 in 10.0 mi WNW 24.2 mph 34.5 mph N/A   Unknown
1:15 AM 26.2 °F 10.9 °F 21.9 °F 84% 29.71 in 10.0 mi WNW 25.3 mph 38.0 mph N/A   Overcast
1:35 AM 26.2 °F 10.9 °F 21.7 °F 83% 29.73 in 10.0 mi West 25.3 mph 40.3 mph N/A   Overcast
1:55 AM 25.3 °F 10.7 °F 21.0 °F 84% 29.74 in 10.0 mi WNW 21.9 mph 32.2 mph N/A   Overcast
2:15 AM 24.8 °F 9.6 °F 20.3 °F 83% 29.76 in 10.0 mi WNW 23.0 mph 39.1 mph N/A   Scattered Clouds
2:35 AM 24.6 °F 9.4 °F 20.3 °F 84% 29.78 in 10.0 mi WNW 23.0 mph 32.2 mph N/A   Scattered Clouds
2:55 AM 24.3 °F 10.0 °F 19.9 °F 84% 29.80 in 10.0 mi WNW 19.6 mph 36.8 mph N/A   Mostly Cloudy
3:15 AM 23.7 °F 8.2 °F 19.4 °F 84% 29.81 in 10.0 mi West 23.0 mph 28.8 mph N/A   Mostly Cloudy
3:35 AM 23.7 °F 8.9 °F 19.4 °F 84% 29.82 in 10.0 mi WNW 20.7 mph 33.4 mph N/A   Scattered Clouds
3:55 AM 22.8 °F 7.7 °F 18.3 °F 83% 29.83 in 10.0 mi West 20.7 mph 31.1 mph N/A   Clear
4:15 AM 21.7 °F 6.7 °F 17.4 °F 83% 29.84 in 10.0 mi WNW 19.6 mph 29.9 mph N/A   Clear
4:35 AM 21.2 °F 4.9 °F 16.7 °F 83% 29.85 in 10.0 mi WNW 23.0 mph 28.8 mph N/A   Clear
4:55 AM 21.2 °F 6.4 °F 17.6 °F 86% 29.86 in 10.0 mi West 18.4 mph 32.2 mph N/A   Clear
5:15 AM 21.2 °F 6.0 °F 16.7 °F 83% 29.88 in 10.0 mi West 19.6 mph 27.6 mph N/A   Clear
5:35 AM 19.9 °F 3.9 °F 15.6 °F 83% 29.89 in 10.0 mi West 20.7 mph 29.9 mph N/A   Clear
5:55 AM 19.6 °F 3.5 °F 15.3 °F 83% 29.90 in 10.0 mi West 20.7 mph 29.9 mph N/A   Clear
6:15 AM 18.9 °F 2.9 °F 14.5 °F 83% 29.91 in 10.0 mi West 19.6 mph 27.6 mph N/A   Clear
6:35 AM 18.5 °F 2.4 °F 14.4 °F 84% 29.93 in 10.0 mi West 19.6 mph 27.6 mph N/A   Clear
6:55 AM 18.5 °F 1.3 °F 14.0 °F 83% 29.94 in 10.0 mi West 23.0 mph 33.4 mph N/A   Clear
7:15 AM 18.5 °F 1.6 °F 14.0 °F 83% 29.95 in 10.0 mi West 21.9 mph 26.5 mph N/A   Clear
7:35 AM 18.5 °F 1.6 °F 13.8 °F 82% 29.97 in 10.0 mi West 21.9 mph 31.1 mph N/A   Clear
7:55 AM 18.5 °F 2.9 °F 13.8 °F 82% 29.98 in 10.0 mi WNW 18.4 mph 28.8 mph N/A   Clear
8:15 AM 18.5 °F 2.4 °F 13.3 °F 80% 29.99 in 10.0 mi West 19.6 mph 26.5 mph N/A   Clear
8:35 AM 18.5 °F 3.8 °F 13.1 °F 79% 29.99 in 10.0 mi WNW 16.1 mph 27.6 mph N/A   Clear
8:55 AM 18.5 °F 3.3 °F 12.9 °F 79% 29.99 in 10.0 mi WNW 17.3 mph 23.0 mph N/A   Clear
9:15 AM 18.5 °F 3.8 °F 12.6 °F 78% 30.00 in 10.0 mi WNW 16.1 mph 23.0 mph N/A   Clear
9:35 AM 18.5 °F 3.3 °F 12.2 °F 76% 30.01 in 10.0 mi WNW 17.3 mph 26.5 mph N/A   Clear
9:55 AM 18.9 °F 2.9 °F 12.2 °F 75% 30.03 in 10.0 mi West 19.6 mph 24.2 mph N/A   Clear
10:15 AM 18.9 °F 2.9 °F 12.2 °F 75% 30.03 in 10.0 mi West 19.6 mph 29.9 mph N/A   Clear
10:35 AM 19.0 °F 4.0 °F 12.2 °F 75% 30.04 in 10.0 mi West 17.3 mph 26.5 mph N/A   Clear
10:55 AM 19.4 °F 4.5 °F 12.2 °F 74% 30.04 in 10.0 mi WNW 17.3 mph 27.6 mph N/A   Clear
11:15 AM 19.9 °F 3.5 °F 12.6 °F 73% 30.05 in 10.0 mi West 21.9 mph 28.8 mph N/A   Clear
11:35 AM 21.2 °F 5.6 °F 13.5 °F 72% 30.05 in 10.0 mi West 20.7 mph 26.5 mph N/A   Clear
11:55 AM 21.2 °F 7.3 °F 13.1 °F 71% 30.05 in 10.0 mi West 16.1 mph 24.2 mph N/A   Clear
12:15 PM 21.2 °F 6.4 °F 13.5 °F 72% 30.05 in 10.0 mi West 18.4 mph 25.3 mph N/A   Clear
12:35 PM 21.2 °F 5.6 °F 13.1 °F 71% 30.06 in 10.0 mi West 20.7 mph 26.5 mph N/A   Clear
1:15 PM 21.9 °F 8.7 °F 13.8 °F 71% 30.06 in 10.0 mi West 15.0 mph 20.7 mph N/A   Clear
1:35 PM 22.3 °F 8.7 °F 14.2 °F 71% 30.07 in 10.0 mi West 16.1 mph 25.3 mph N/A   Clear
1:55 PM 22.1 °F 9.5 °F 14.2 °F 72% 30.08 in 10.0 mi WNW 13.8 mph 20.7 mph N/A   Clear
2:15 PM 22.8 °F 9.4 °F 14.7 °F 71% 30.09 in 10.0 mi West 16.1 mph 20.7 mph N/A   Clear
2:35 PM 23.2 °F 7.8 °F 14.5 °F 70% 30.09 in 10.0 mi West 21.9 mph - N/A   Clear
2:55 PM 23.7 °F 10.1 °F 15.3 °F 70% 30.11 in 10.0 mi West 17.3 mph 27.6 mph N/A   Clear
3:15 PM 23.4 °F 9.6 °F 14.9 °F 70% 30.11 in 10.0 mi West 17.3 mph 23.0 mph N/A   Clear
3:35 PM 23.0 °F 9.6 °F 14.5 °F 70% 30.12 in 10.0 mi West 16.1 mph 21.9 mph N/A   Clear
3:55 PM 22.3 °F 8.7 °F 14.0 °F 71% 30.13 in 10.0 mi West 16.1 mph - N/A   Clear
4:15 PM 21.9 °F 8.2 °F 13.8 °F 71% 30.13 in 10.0 mi West 16.1 mph - N/A   Clear
4:35 PM 21.2 °F 8.3 °F 13.5 °F 72% 30.15 in 10.0 mi West 13.8 mph 20.7 mph N/A   Clear
4:55 PM 21.2 °F 9.5 °F 13.6 °F 73% 30.16 in 10.0 mi West 11.5 mph - N/A   Clear
5:15 PM 21.2 °F 9.5 °F 13.8 °F 73% 30.17 in 10.0 mi West 11.5 mph - N/A   Clear
5:35 PM 21.0 °F 9.9 °F 13.6 °F 73% 30.18 in 10.0 mi West 10.4 mph - N/A   Clear
5:55 PM 21.2 °F 10.1 °F 13.6 °F 73% 30.19 in 10.0 mi West 10.4 mph - N/A   Clear
6:15 PM 20.1 °F 6.9 °F 13.1 °F 74% 30.19 in 10.0 mi West 13.8 mph - N/A   Clear
6:35 PM 19.0 °F 6.1 °F 12.2 °F 75% 30.19 in 10.0 mi West 12.7 mph - N/A   Clear
6:55 PM 19.4 °F 7.9 °F 12.7 °F 75% 30.20 in 10.0 mi West 10.4 mph 16.1 mph N/A   Clear
7:15 PM 18.7 °F 7.8 °F 12.0 °F 75% 30.20 in 10.0 mi West 9.2 mph - N/A   Clear
7:35 PM 18.5 °F 9.3 °F 12.0 °F 76% 30.21 in 10.0 mi West 6.9 mph - N/A   Clear
7:55 PM 18.5 °F 9.3 °F 12.2 °F 76% 30.21 in 10.0 mi WNW 6.9 mph - N/A   Clear
8:15 PM 18.5 °F 6.8 °F 12.0 °F 76% 30.21 in 10.0 mi WNW 10.4 mph - N/A   Clear
8:35 PM 18.5 °F 6.8 °F 12.0 °F 76% 30.21 in 10.0 mi WNW 10.4 mph - N/A   Clear
8:55 PM 18.5 °F 6.8 °F 12.0 °F 76% 30.21 in 10.0 mi WNW 10.4 mph - N/A   Clear
9:15 PM 18.5 °F 6.8 °F 11.8 °F 75% 30.21 in 10.0 mi West 10.4 mph - N/A   Clear
9:35 PM 18.5 °F 8.4 °F 12.0 °F 76% 30.21 in 10.0 mi West 8.1 mph - N/A   Clear
9:55 PM 17.8 °F 8.5 °F 11.1 °F 75% 30.21 in 10.0 mi West 6.9 mph - N/A   Clear
10:15 PM 16.3 °F - 9.5 °F 74% 30.21 in 10.0 mi Calm Calm - N/A   Clear
10:35 PM 16.2 °F - 9.7 °F 76% 30.21 in 10.0 mi Calm Calm - N/A   Clear
10:55 PM 15.4 °F 5.6 °F 9.3 °F 77% 30.21 in 10.0 mi West 6.9 mph - N/A   Clear
11:15 PM 16.2 °F 9.0 °F 10.0 °F 77% 30.21 in 10.0 mi West 4.6 mph - N/A   Clear
11:35 PM 16.0 °F 5.3 °F 10.0 °F 77% 30.21 in 10.0 mi West 8.1 mph - N/A   Clear
11:55 PM 14.9 °F 7.5 °F 9.0 °F 77% 30.21 in 10.0 mi West 4.6 mph - N/A   Clear